Regional Weather Roundup
Issued by NWS Binghamton, NY

Home | Current Version | Previous Version | Text Only | Print | Product List | Glossary On
Versions: 1 2 3 4 5 6 7 8 9 10 11 12 13 14 15 16 17 18 19 20 21 22 23 24 25 26 27 28 29 30 31 32 33 34 35 36 37 38 39 40 41 42 43 44 45 46 47 48 49 50
000
ASUS41 KBGM 271410
RWRBGM
RWRBGM
BINGHAMTON REGIONAL WEATHER ROUNDUP
NATIONAL WEATHER SERVICE BINGHAMTON NY
1000 AM EDT WED MAY 27 2015

Note: "fair" indicates few or no clouds below 12,000 feet with no
significant weather and/or obstructions to visibility.

* = Station(s) that does not report precipitation, such as rain,
snow, etc, also no thunder or fog.

!NYZ009-015>018-022>025-036-037-044>046-055>057-062-271500
...CENTRAL NEW YORK...

CITY           SKY/WX    TMP DP  RH WIND       PRES   REMARKS
BINGHAMTON     CLOUDY    73  65  75 SW14      30.13R
CORTLAND       PTSUNNY   77  66  69 SW9       30.10S
DANSVILLE      PTSUNNY   76  62  62 VRB3      30.06S
ELMIRA         PTSUNNY   78  63  59 SW13      30.08S
ITHACA         PTSUNNY   79  64  59 SW12      30.10S
MONTICELLO     CLOUDY    72  66  83 S5        30.18S
NORWICH        MOSUNNY   75  64  69 SW8G17    30.10F
ONEONTA        MOSUNNY   75  64  69 SW7       30.14S
PENN YAN       CLOUDY    74  63  68 S8        30.07S
ROME           PTSUNNY   79  64  60 SW12G21   30.06S
SIDNEY         PTSUNNY   77  70  78 W7        30.11S
SYRACUSE       CLOUDY    78  64  61 SW16G26   30.03S
$$

!PAZ038>040-043-044-047-048-072-271500
...NORTHEAST PENNSYLVANIA...

CITY           SKY/WX    TMP DP  RH WIND       PRES   REMARKS
HAZLETON       MOSUNNY   75  64  69 S8        30.21S
SCRANTON       MOSUNNY   80  65  59 SW7       30.13F
$$
&&
KEY
WCI = WIND CHILL INDEX
VSB = VISIBILITY
HX  = HEAT INDEX
$$



USA.gov is the U.S. government's official web portal to all federal, state and local government web resources and services.